Whitleyville, Tennessee
Current Conditions -  °F | °C
As of 1:55 PM on Tuesday 21 Oct 2014 (Local Time) from KSRB Reporting Station
Scattered Clouds Scattered Clouds  
Wind Chill: 66°   Ceiling: Unl
Heat Index: 66°   Visibility: 10mi
Dew Point: 48°   Wind: 7mph
Humidity: 52%   Direction: 10°N
Pressure: 30.02"   Gusts: NA
Location:  36.45°N, 85.74°W
Report Text: KSRB 211855Z AUTO 01006KT 10SM SCT049 19/09 A3002 RMK
Loading
Personal Weather Stations






























Interactive Weather Map
Tropical Storm Tracking
New forecast layout! Learn more

10-Day Weather Forecast

Advertisements
Track Severe Weather on mobile